Change the Weather History Date:

Friday, April 25, 2014

  Actual Average Record
Temperature  
Mean Temperature 62 °F -  
Max Temperature 71 °F 69 °F 89 °F (1989)
Min Temperature 53 °F 44 °F 30 °F (1968)
Degree Days  
Heating Degree Days 3    
Growing Degree Days 12 (Base 50)    
Moisture  
Dew Point 51 °F    
Average Humidity 68    
Maximum Humidity 99    
Minimum Humidity 39    
Precipitation  
Precipitation 0.07 in - - ()
Sea Level Pressure  
Sea Level Pressure 29.85 in    
Wind  
Wind Speed 9 mph (West)    
Max Wind Speed 20 mph    
Max Gust Speed 29 mph    
Visibility 9 miles    
Events Rain    
Averages and records for this station are not official NWS values.
T = Trace of Precipitation, MM = Missing Value Source: NWS Daily Summary

Daily Weather History Graph

Daily Weather History Graph

Search for Another Location

Airport or City:

Trip Planner

Search our weather history database for the weather conditions in past years. The results will help you decide how hot, cold, wet, or windy it might be!

Date:

Astronomy

Apr. 25, 2014 Rise Set
Actual Time 6:05 AM CDT 7:42 PM CDT
Civil Twilight 5:37 AM CDT 8:10 PM CDT
Nautical Twilight 5:03 AM CDT 8:44 PM CDT
Astronomical Twilight 4:27 AM CDT 9:20 PM CDT
Moon 3:51 AM CDT (4/25) 4:06 PM CDT (4/25)
Length of Visible Light 14h 32m
Length of Day
13h 36m
Waning Crescent, 15% of the Moon is Illuminated
Apr 25
Waning Crescent
Apr 29
New
May 6
First Quarter
May 14
Full
May 21
Last Quarter

Hourly Weather History & Observations

Time (CDT) Temp. Dew Point Humidity Pressure Visibility Wind Dir Wind Speed Gust Speed Precip Events Conditions
12:15 AM 58.5 °F 57.9 °F 98% 29.66 in 7.0 mi SW 6.9 mph - N/A Rain Rain
12:35 AM 58.5 °F 58.1 °F 99% 29.66 in 4.0 mi SW 3.5 mph - 0.04 in Rain Rain
12:55 AM 58.3 °F 57.7 °F 98% 29.64 in 5.0 mi Calm Calm - 0.05 in Rain Rain
1:15 AM 58.1 °F 57.6 °F 98% 29.65 in 5.0 mi Calm Calm - N/A Rain Rain
1:35 AM 58.3 °F 57.7 °F 98% 29.65 in 5.0 mi SSW 4.6 mph - N/A Rain Rain
1:55 AM 58.5 °F 58.1 °F 99% 29.64 in 5.0 mi SSW 5.8 mph - N/A Rain Rain
2:15 AM 58.5 °F 58.1 °F 99% 29.64 in 10.0 mi SW 6.9 mph - N/A Rain Light Rain
2:35 AM 59.0 °F 58.1 °F 97% 29.64 in 7.0 mi SW 9.2 mph - N/A Rain Rain
2:55 AM 58.3 °F 56.5 °F 94% 29.65 in 5.0 mi WNW 18.4 mph 26.5 mph 0.02 in Rain Rain
3:15 AM 57.4 °F 55.9 °F 95% 29.67 in 7.0 mi WNW 13.8 mph 23.0 mph N/A Rain Light Rain
3:35 AM 57.2 °F 55.4 °F 94% 29.67 in 10.0 mi WNW 12.7 mph 20.7 mph N/A   Overcast
3:55 AM 56.8 °F 54.9 °F 93% 29.68 in 10.0 mi WNW 13.8 mph 20.7 mph N/A Rain Rain
4:15 AM 56.7 °F 54.9 °F 94% 29.69 in 7.0 mi WNW 16.1 mph 25.3 mph N/A Rain Heavy Rain
4:35 AM 56.3 °F 54.9 °F 95% 29.70 in 3.0 mi WNW 19.6 mph 26.5 mph N/A   Heavy Drizzle
4:55 AM 55.8 °F 54.5 °F 96% 29.72 in 3.0 mi WNW 17.3 mph 28.8 mph N/A Rain Heavy Rain
5:15 AM 55.6 °F 54.3 °F 96% 29.73 in 3.0 mi NW 18.4 mph 26.5 mph N/A   Heavy Drizzle
5:35 AM 55.8 °F 53.8 °F 93% 29.74 in 5.0 mi NW 12.7 mph 24.2 mph N/A   Overcast
5:55 AM 55.4 °F 53.6 °F 94% 29.76 in 5.0 mi WNW 17.3 mph 21.9 mph N/A   Overcast
6:15 AM 54.9 °F 53.1 °F 94% 29.78 in 5.0 mi WNW 15.0 mph 24.2 mph N/A   Overcast
6:35 AM 54.7 °F 52.2 °F 91% 29.80 in 5.0 mi WNW 16.1 mph 23.0 mph N/A   Overcast
6:55 AM 54.1 °F 51.3 °F 90% 29.81 in 7.0 mi WNW 15.0 mph 20.7 mph N/A   Mostly Cloudy
7:15 AM 53.8 °F 50.7 °F 89% 29.83 in 5.0 mi WNW 12.7 mph - N/A   Scattered Clouds
7:35 AM 53.1 °F 49.8 °F 89% 29.83 in 7.0 mi WNW 13.8 mph - N/A   Clear
7:55 AM 53.8 °F 50.0 °F 87% 29.85 in 7.0 mi WNW 13.8 mph 17.3 mph N/A   Clear
8:15 AM 54.5 °F 49.5 °F 83% 29.86 in 10.0 mi NW 12.7 mph 19.6 mph N/A   Clear
8:35 AM 55.6 °F 49.3 °F 79% 29.88 in 10.0 mi NW 11.5 mph - N/A   Clear
8:55 AM 57.0 °F 49.6 °F 76% 29.88 in 10.0 mi NW 12.7 mph 19.6 mph N/A   Clear
9:15 AM 57.7 °F 48.9 °F 72% 29.89 in 10.0 mi NW 13.8 mph - N/A   Clear
9:35 AM 58.6 °F 49.1 °F 71% 29.89 in 10.0 mi NW 13.8 mph 18.4 mph N/A   Clear
9:55 AM 60.1 °F 48.9 °F 67% 29.90 in 10.0 mi WNW 15.0 mph - N/A   Clear
10:15 AM 61.5 °F 49.5 °F 65% 29.91 in 10.0 mi NNW 13.8 mph 19.6 mph N/A   Clear
10:35 AM 62.6 °F 48.6 °F 60% 29.92 in 10.0 mi NW 13.8 mph 17.3 mph N/A   Clear
10:55 AM 63.9 °F 49.3 °F 59% 29.94 in 10.0 mi NW 12.7 mph 19.6 mph N/A   Clear
11:15 AM 64.6 °F 48.9 °F 57% 29.95 in 10.0 mi NW 11.5 mph - N/A   Clear
11:35 AM 65.1 °F 48.7 °F 55% 29.96 in 10.0 mi NW 12.7 mph 20.7 mph N/A   Clear
11:55 AM 65.7 °F 48.7 °F 54% 29.96 in 10.0 mi NNW 12.7 mph - N/A   Clear
12:15 PM 66.6 °F 48.2 °F 52% 29.96 in 10.0 mi NW 16.1 mph 21.9 mph N/A   Clear
12:35 PM 67.1 °F 48.2 °F 51% 29.96 in 10.0 mi NW 10.4 mph 16.1 mph N/A   Clear
12:55 PM 67.3 °F 47.7 °F 49% 29.95 in 10.0 mi NW 10.4 mph 23.0 mph N/A   Clear
1:15 PM 68.7 °F 48.6 °F 49% 29.95 in 10.0 mi NNW 11.5 mph 18.4 mph N/A   Clear
1:35 PM 69.1 °F 46.9 °F 45% 29.95 in 10.0 mi WNW 16.1 mph 20.7 mph N/A   Clear
1:55 PM 70.3 °F 48.2 °F 45% 29.95 in 10.0 mi NNW 10.4 mph 19.6 mph N/A   Clear
2:15 PM 70.9 °F 47.3 °F 43% 29.95 in 10.0 mi NW 11.5 mph 19.6 mph N/A   Clear
2:35 PM 71.1 °F 44.6 °F 39% 29.94 in 10.0 mi NW 10.4 mph 16.1 mph N/A   Clear
2:55 PM 71.4 °F 50.7 °F 48% 29.94 in 10.0 mi WSW 11.5 mph 16.1 mph N/A   Clear
3:15 PM 71.2 °F 50.2 °F 47% 29.94 in 10.0 mi West 9.2 mph 18.4 mph N/A   Clear
3:35 PM 71.6 °F 50.0 °F 46% 29.93 in 10.0 mi West 10.4 mph 17.3 mph N/A   Clear
3:55 PM 71.6 °F 49.1 °F 45% 29.93 in 10.0 mi WSW 6.9 mph - N/A   Clear
4:15 PM 71.1 °F 47.5 °F 43% 29.93 in 10.0 mi SW 6.9 mph - N/A   Clear
4:35 PM 71.6 °F 49.3 °F 45% 29.93 in 10.0 mi WSW 10.4 mph 16.1 mph N/A   Clear
4:55 PM 71.6 °F 47.8 °F 43% 29.93 in 10.0 mi SW 6.9 mph - N/A   Clear
5:15 PM 71.6 °F 48.9 °F 45% 29.92 in 10.0 mi West 6.9 mph - N/A   Clear
5:35 PM 71.6 °F 48.7 °F 44% 29.92 in 10.0 mi WSW 10.4 mph - N/A   Clear
5:55 PM 71.6 °F 48.4 °F 44% 29.91 in 10.0 mi West 5.8 mph - N/A   Clear
6:15 PM 71.2 °F 47.8 °F 43% 29.91 in 10.0 mi WSW 9.2 mph - N/A   Clear
6:35 PM 70.3 °F 48.2 °F 45% 29.91 in 10.0 mi West 8.1 mph - N/A   Clear
6:55 PM 68.5 °F 50.9 °F 53% 29.91 in 10.0 mi SW 6.9 mph - N/A   Clear
7:15 PM 66.9 °F 50.9 °F 56% 29.91 in 10.0 mi South 4.6 mph - N/A   Clear
7:35 PM 67.5 °F 48.0 °F 50% 29.91 in 10.0 mi South 3.5 mph - N/A   Clear
7:55 PM 66.7 °F 47.7 °F 50% 29.91 in 10.0 mi SSE 3.5 mph - N/A   Clear
8:15 PM 65.7 °F 47.8 °F 53% 29.91 in 10.0 mi SSE 4.6 mph - N/A   Clear
8:35 PM 64.6 °F 47.7 °F 54% 29.91 in 10.0 mi SSE 3.5 mph - N/A   Clear
8:55 PM 63.7 °F 47.8 °F 56% 29.92 in 10.0 mi SSE 3.5 mph - N/A   Clear
9:15 PM 62.8 °F 48.0 °F 59% 29.92 in 10.0 mi SSE 3.5 mph - N/A   Clear
9:35 PM 62.2 °F 47.7 °F 59% 29.92 in 10.0 mi SSE 4.6 mph - N/A   Clear
9:55 PM 62.8 °F 47.8 °F 58% 29.93 in 10.0 mi SSE 4.6 mph - N/A   Clear
10:15 PM 60.8 °F 48.6 °F 64% 29.93 in 10.0 mi South 4.6 mph - N/A   Clear
10:35 PM 60.1 °F 48.4 °F 65% 29.93 in 10.0 mi South 5.8 mph - N/A   Clear
10:55 PM 60.8 °F 48.2 °F 63% 29.93 in 10.0 mi South 5.8 mph - N/A   Clear
11:15 PM 61.2 °F 47.7 °F 61% 29.93 in 10.0 mi South 6.9 mph - N/A   Clear
11:35 PM 61.0 °F 47.3 °F 61% 29.93 in 10.0 mi South 4.6 mph - N/A   Clear
11:55 PM 61.3 °F 46.9 °F 59% 29.92 in 10.0 mi SSE 3.5 mph - N/A   Clear